When you browse on this site, cookies collect data to enhance your experience and personalize the content and advertising you see.
Visit our Privacy Policy to learn more. By continuing to use the site, you agree to this use of cookies and data.
  • In Hungary
  • List of Countries
  • For 7 days
  • Water Temperature
  • Weather Map
  • News
  • Weather Widgets
  • user-avatar
    Login

    Hourly Weather Zheldybino

    Today, 15 September, Sunday

    Time Temperature Precipitation Wind Pressure Humidity
    00:00 +5°C° 0 mm 3 mps 741 mmHg 92%
    01:00 +5°C° 0 mm 3 mps 741 mmHg 93%
    02:00 +5°C° 0 mm 3 mps 741 mmHg 93%
    03:00 +4°C° 0 mm 3 mps 741 mmHg 95%
    04:00 +4°C° 0 mm 3 mps 741 mmHg 96%
    05:00 +4°C° 0 mm 3 mps 741 mmHg 97%
    06:00 +5°C° 0 mm 3 mps 741 mmHg 93%
    07:00 +5°C° 0 mm 4 mps 741 mmHg 90%
    08:00 +6°C° 0 mm 4 mps 741 mmHg 86%
    09:00 +7°C° 0 mm 4 mps 741 mmHg 83%
    10:00 +8°C° 0 mm 4 mps 741 mmHg 79%
    11:00 +8°C° 0 mm 4 mps 740 mmHg 76%
    12:00 +10°C° 0 mm 4 mps 740 mmHg 73%
    13:00 +10°C° 0 mm 4 mps 739 mmHg 71%
    14:00 +11°C° 0 mm 4 mps 739 mmHg 68%
    15:00 +10°C° 0.1 mm 4 mps 738 mmHg 72%
    16:00 +8°C° 0.1 mm 5 mps 737 mmHg 76%
    17:00 +8°C° 0.1 mm 5 mps 736 mmHg 79%
    18:00 +7°C° 0.3 mm 5 mps 735 mmHg 84%
    19:00 +7°C° 0.3 mm 6 mps 733 mmHg 88%
    20:00 +7°C° 0.3 mm 6 mps 732 mmHg 93%
    21:00 +7°C° 0.6 mm 6 mps 731 mmHg 92%
    22:00 +6°C° 0.6 mm 7 mps 730 mmHg 92%
    23:00 +6°C° 0.6 mm 7 mps 729 mmHg 92%

    Tomorrow, 16 September, Monday

    Time Temperature Precipitation Wind Pressure Humidity
    00:00 +7°C° 0.1 mm 6 mps 729 mmHg 92%
    01:00 +8°C° 0.1 mm 6 mps 728 mmHg 92%
    02:00 +8°C° 0.1 mm 6 mps 728 mmHg 91%
    03:00 +7°C° 0.1 mm 5 mps 728 mmHg 92%
    04:00 +7°C° 0.1 mm 5 mps 727 mmHg 93%
    05:00 +6°C° 0.1 mm 5 mps 727 mmHg 94%
    06:00 +7°C° 0.2 mm 5 mps 727 mmHg 91%
    07:00 +8°C° 0.2 mm 5 mps 727 mmHg 89%
    08:00 +8°C° 0.2 mm 5 mps 726 mmHg 86%
    09:00 +8°C° 0.2 mm 5 mps 726 mmHg 85%
    10:00 +9°C° 0.2 mm 5 mps 726 mmHg 83%
    11:00 +9°C° 0.2 mm 6 mps 726 mmHg 81%
    12:00 +9°C° 0.2 mm 6 mps 726 mmHg 81%
    13:00 +9°C° 0.2 mm 6 mps 726 mmHg 82%
    14:00 +9°C° 0.2 mm 6 mps 726 mmHg 82%
    15:00 +9°C° 0.2 mm 6 mps 726 mmHg 83%
    16:00 +9°C° 0.2 mm 6 mps 726 mmHg 84%
    17:00 +9°C° 0.2 mm 5 mps 726 mmHg 84%
    18:00 +8°C° 0.1 mm 5 mps 726 mmHg 86%
    19:00 +8°C° 0.1 mm 5 mps 726 mmHg 88%
    20:00 +8°C° 0.1 mm 5 mps 725 mmHg 90%
    21:00 +7°C° 0.1 mm 5 mps 725 mmHg 91%
    22:00 +7°C° 0.1 mm 5 mps 725 mmHg 91%
    23:00 +7°C° 0.1 mm 5 mps 725 mmHg 91%

    Day after tomorrow, 17 September, Tuesday

    Time Temperature Precipitation Wind Pressure Humidity
    00:00 +7°C° 0 mm 5 mps 725 mmHg 90%
    01:00 +7°C° 0 mm 5 mps 725 mmHg 89%
    02:00 +7°C° 0 mm 6 mps 724 mmHg 89%
    03:00 +7°C° 0.2 mm 6 mps 724 mmHg 89%
    04:00 +5°C° 0.2 mm 6 mps 724 mmHg 89%
    05:00 +5°C° 0.2 mm 6 mps 724 mmHg 90%
    06:00 +5°C° 0.4 mm 6 mps 724 mmHg 90%
    07:00 +5°C° 0.4 mm 6 mps 724 mmHg 90%
    08:00 +5°C° 0.4 mm 6 mps 724 mmHg 90%
    09:00 +7°C° 0.3 mm 6 mps 725 mmHg 88%
    10:00 +7°C° 0.3 mm 6 mps 725 mmHg 86%
    11:00 +8°C° 0.3 mm 5 mps 726 mmHg 84%
    12:00 +8°C° 0.3 mm 5 mps 726 mmHg 82%
    13:00 +9°C° 0.3 mm 5 mps 726 mmHg 80%
    14:00 +9°C° 0.3 mm 5 mps 726 mmHg 79%
    15:00 +8°C° 0.3 mm 5 mps 726 mmHg 81%
    16:00 +8°C° 0.3 mm 4 mps 726 mmHg 84%
    17:00 +7°C° 0.3 mm 4 mps 726 mmHg 87%
    18:00 +8°C° 0.1 mm 3 mps 727 mmHg 89%
    19:00 +7°C° 0.1 mm 3 mps 727 mmHg 91%
    20:00 +5°C° 0.1 mm 3 mps 727 mmHg 94%
    21:00 +5°C° 0 mm 3 mps 727 mmHg 95%
    22:00 +5°C° 0 mm 2 mps 727 mmHg 96%
    23:00 +5°C° 0 mm 2 mps 727 mmHg 97%

    18 September, Wednesday

    Time Temperature Precipitation Wind Pressure Humidity
    00:00 +5°C° 0.2 mm 2 mps 727 mmHg 97%
    01:00 +5°C° 0.2 mm 2 mps 727 mmHg 97%
    02:00 +5°C° 0.2 mm 2 mps 727 mmHg 97%
    03:00 +5°C° 0.2 mm 2 mps 727 mmHg 97%
    04:00 +5°C° 0.2 mm 2 mps 727 mmHg 96%
    05:00 +5°C° 0.2 mm 2 mps 727 mmHg 96%
    06:00 +6°C° 0.1 mm 2 mps 727 mmHg 94%
    07:00 +6°C° 0.1 mm 2 mps 727 mmHg 93%
    08:00 +7°C° 0.1 mm 2 mps 728 mmHg 91%
    09:00 +8°C° 0.2 mm 2 mps 728 mmHg 87%
    10:00 +8°C° 0.2 mm 2 mps 728 mmHg 83%
    11:00 +9°C° 0.2 mm 2 mps 728 mmHg 79%
    12:00 +9°C° 0.4 mm 3 mps 729 mmHg 77%
    13:00 +10°C° 0.4 mm 3 mps 729 mmHg 75%
    14:00 +10°C° 0.4 mm 4 mps 729 mmHg 73%
    15:00 +9°C° 0.1 mm 3 mps 729 mmHg 77%
    16:00 +8°C° 0.1 mm 3 mps 730 mmHg 80%
    17:00 +7°C° 0.1 mm 2 mps 730 mmHg 84%
    18:00 +6°C° 0 mm 2 mps 731 mmHg 86%
    19:00 +6°C° 0 mm 2 mps 732 mmHg 89%
    20:00 +5°C° 0 mm 2 mps 732 mmHg 91%
    21:00 +4°C° 0 mm 2 mps 733 mmHg 92%
    22:00 +4°C° 0 mm 2 mps 733 mmHg 93%
    23:00 +3°C° 0 mm 2 mps 734 mmHg 94%

    19 September, Thursday

    Time Temperature Precipitation Wind Pressure Humidity
    00:00 +3°C° 0 mm 2 mps 734 mmHg 94%
    01:00 +3°C° 0 mm 2 mps 735 mmHg 94%
    02:00 +2°C° 0 mm 2 mps 735 mmHg 94%
    03:00 +2°C° 0 mm 2 mps 735 mmHg 94%
    04:00 +2°C° 0 mm 2 mps 736 mmHg 95%
    05:00 +2°C° 0 mm 2 mps 736 mmHg 95%
    06:00 +2°C° 0 mm 2 mps 737 mmHg 92%
    07:00 +3°C° 0 mm 2 mps 737 mmHg 89%
    08:00 +4°C° 0 mm 2 mps 737 mmHg 86%
    09:00 +5°C° 0.1 mm 2 mps 738 mmHg 78%
    10:00 +6°C° 0.1 mm 2 mps 738 mmHg 70%
    11:00 +7°C° 0.1 mm 3 mps 739 mmHg 61%
    12:00 +7°C° 0 mm 3 mps 739 mmHg 59%
    13:00 +8°C° 0 mm 3 mps 739 mmHg 56%
    14:00 +8°C° 0 mm 3 mps 739 mmHg 53%
    15:00 +7°C° 0 mm 2 mps 739 mmHg 58%
    16:00 +6°C° 0 mm 2 mps 739 mmHg 64%
    17:00 +6°C° 0 mm 2 mps 739 mmHg 69%
    18:00 +5°C° 0 mm 2 mps 739 mmHg 74%
    19:00 +4°C° 0 mm 2 mps 739 mmHg 79%
    20:00 +3°C° 0 mm 2 mps 739 mmHg 84%
    21:00 +2°C° 0 mm 2 mps 740 mmHg 86%
    22:00 +2°C° 0 mm 2 mps 740 mmHg 88%
    23:00 +1°C° 0 mm 2 mps 740 mmHg 90%

    20 September, Friday

    Time Temperature Precipitation Wind Pressure Humidity
    00:00 +1°C° 0 mm 2 mps 740 mmHg 91%
    01:00 -1°C° 0 mm 2 mps 740 mmHg 91%
    02:00 -1°C° 0 mm 2 mps 740 mmHg 91%
    03:00 -2°C° 0 mm 3 mps 740 mmHg 93%
    04:00 -2°C° 0 mm 3 mps 740 mmHg 94%
    05:00 -2°C° 0 mm 3 mps 741 mmHg 96%
    06:00 -1°C° 0 mm 3 mps 741 mmHg 90%
    07:00 0°C° 0 mm 4 mps 741 mmHg 83%
    08:00 +1°C° 0 mm 4 mps 741 mmHg 77%
    09:00 +3°C° 0 mm 4 mps 742 mmHg 72%
    10:00 +4°C° 0 mm 4 mps 742 mmHg 67%
    11:00 +5°C° 0 mm 5 mps 742 mmHg 62%
    12:00 +6°C° 0.1 mm 5 mps 742 mmHg 60%
    13:00 +6°C° 0.1 mm 5 mps 742 mmHg 59%
    14:00 +6°C° 0.1 mm 5 mps 742 mmHg 57%
    15:00 +5°C° 0 mm 4 mps 742 mmHg 62%
    16:00 +4°C° 0 mm 3 mps 742 mmHg 67%
    17:00 +5°C° 0 mm 2 mps 742 mmHg 72%
    18:00 +3°C° 0 mm 2 mps 742 mmHg 75%
    19:00 +2°C° 0 mm 2 mps 742 mmHg 78%
    20:00 +1°C° 0 mm 2 mps 742 mmHg 81%
    21:00 +1°C° 0 mm 2 mps 742 mmHg 82%
    22:00 -1°C° 0 mm 2 mps 742 mmHg 82%
    23:00 -1°C° 0 mm 2 mps 742 mmHg 83%
    Show more